�N����,����,�~����,�C��,���x,�C��,����,���ϕ���,�ő�u�ԕ���,�ő厞����,���˗�,�I�_���x,�n�����x,�ő啗���N��,DTYPE
"18/06/18","00:10",0.0,21.6,75.3,1006.0,14.6,0.8,2.4,321.1,0.00,17.1,21.1,"00:07:52",1
"18/06/18","00:20",0.0,21.8,74.9,1005.7,9.8,1.0,3.4,354.7,0.00,17.2,21.2,"00:16:16",1
"18/06/18","00:30",0.0,21.8,74.8,1005.7,18.3,1.0,2.1,67.2,0.00,17.2,21.2,"00:28:32",1
"18/06/18","00:40",0.0,21.8,74.9,1005.5,15.4,0.7,1.8,17.5,0.00,17.2,21.2,"00:31:52",1
"18/06/18","00:50",0.0,21.8,75.5,1005.5,66.8,0.8,2.1,75.2,0.00,17.3,21.0,"00:40:32",1
"18/06/18","01:00",0.0,21.7,76.4,1005.5,2.3,0.7,2.0,342.5,0.00,17.4,21.1,"00:54:32",1
"18/06/18","01:10",0.0,21.8,76.1,1005.2,338.9,0.8,1.7,88.4,0.00,17.4,21.0,"01:06:08",1
"18/06/18","01:20",0.0,21.7,76.4,1005.0,114.1,0.6,1.6,135.6,0.00,17.4,21.0,"01:16:40",1
"18/06/18","01:30",0.0,21.6,77.5,1004.8,82.0,0.6,1.6,124.1,0.00,17.5,21.0,"01:27:12",1
"18/06/18","01:40",0.0,21.7,77.1,1004.5,101.0,0.7,2.5,144.1,0.00,17.6,21.0,"01:35:04",1
"18/06/18","01:50",0.0,21.7,77.0,1004.8,68.0,0.7,2.0,115.5,0.00,17.5,20.9,"01:41:20",1
"18/06/18","02:00",0.0,21.9,76.7,1004.8,57.9,1.0,4.5,146.2,0.00,17.7,21.1,"01:57:04",1
"18/06/18","02:10",0.0,21.9,76.5,1004.8,120.9,1.0,2.5,130.6,0.00,17.6,21.1,"02:05:28",1
"18/06/18","02:20",0.0,21.8,76.8,1004.8,70.6,0.7,2.1,102.7,0.00,17.6,21.0,"02:12:56",1
"18/06/18","02:30",0.0,21.9,76.7,1004.8,2.3,0.7,1.9,5.4,0.00,17.7,20.8,"02:26:08",1
"18/06/18","02:40",0.0,21.9,76.8,1004.8,40.8,0.8,2.1,118.0,0.00,17.7,20.8,"02:35:12",1
"18/06/18","02:50",0.0,21.9,77.0,1004.3,19.5,1.0,2.2,28.6,0.00,17.7,20.9,"02:43:52",1
"18/06/18","03:00",0.0,21.9,77.0,1004.5,30.3,0.7,2.0,51.5,0.00,17.7,21.0,"02:54:32",1
"18/06/18","03:10",0.0,21.8,76.7,1004.5,11.8,1.0,3.3,356.2,0.00,17.6,20.8,"03:02:48",1
"18/06/18","03:20",0.0,21.8,76.0,1004.5,3.6,1.0,3.4,1.1,0.00,17.4,21.1,"03:18:00",1
"18/06/18","03:30",0.0,21.7,75.7,1004.3,348.8,0.7,1.7,334.4,0.00,17.3,21.0,"03:26:40",1
"18/06/18","03:40",0.0,21.5,76.3,1004.5,169.5,0.7,2.1,95.4,0.00,17.2,20.8,"03:33:28",1
"18/06/18","03:50",0.0,21.6,76.4,1004.3,86.5,1.0,3.3,87.1,0.00,17.3,20.7,"03:45:28",1
"18/06/18","04:00",0.0,21.6,76.1,1004.5,141.9,0.7,1.8,136.4,0.00,17.3,20.7,"03:52:00",1
"18/06/18","04:10",0.0,21.5,76.7,1004.8,73.8,0.5,1.9,243.0,0.00,17.3,20.8,"04:00:32",1
"18/06/18","04:20",0.0,21.3,78.6,1004.1,344.4,0.7,2.4,327.9,0.00,17.5,20.8,"04:19:12",1
"18/06/18","04:30",0.0,21.0,80.3,1004.1,325.8,1.1,1.4,335.9,0.00,17.5,20.8,"04:20:16",1
"18/06/18","04:40",0.0,20.8,81.3,1004.3,334.1,1.0,1.6,333.7,0.00,17.5,20.8,"04:32:40",1
"18/06/18","04:50",0.0,20.7,81.5,1004.3,339.7,0.8,1.9,344.2,0.00,17.5,20.6,"04:49:44",1
"18/06/18","05:00",0.0,20.7,81.2,1004.5,333.4,1.0,2.2,338.1,0.00,17.4,20.7,"04:50:02",1
"18/06/18","05:10",0.0,20.7,81.4,1004.8,333.5,1.0,2.1,329.2,0.00,17.4,20.7,"05:00:16",1
"18/06/18","05:20",0.0,20.6,81.7,1005.0,328.0,0.8,2.1,340.2,0.00,17.4,20.7,"05:18:24",1
"18/06/18","05:30",0.0,20.6,81.9,1005.0,332.6,1.2,2.0,338.5,0.00,17.4,20.7,"05:22:00",1
"18/06/18","05:40",0.0,20.6,82.3,1005.0,321.2,1.0,1.7,325.3,0.00,17.5,20.5,"05:30:08",1
"18/06/18","05:50",0.0,20.6,82.5,1005.0,330.1,0.6,1.4,336.6,0.00,17.6,20.7,"05:40:48",1
"18/06/18","06:00",0.0,20.7,83.8,1005.0,298.4,0.6,1.2,324.1,0.00,17.9,20.8,"05:56:56",1
"18/06/18","06:10",0.0,20.3,85.0,1005.5,289.1,0.8,1.7,319.4,0.00,17.7,20.7,"06:07:04",1
"18/06/18","06:20",0.0,20.2,86.7,1005.0,289.8,0.7,1.2,311.3,0.00,18.0,20.7,"06:14:32",1
"18/06/18","06:30",0.0,20.2,88.0,1005.0,287.3,0.6,1.0,276.1,0.00,18.2,20.7,"06:21:36",1
"18/06/18","06:40",0.0,20.1,88.7,1005.0,290.9,0.8,1.3,320.3,0.00,18.2,20.6,"06:35:04",1
"18/06/18","06:50",0.0,19.9,89.7,1005.0,291.2,0.8,1.6,288.7,0.00,18.2,20.6,"06:48:32",1
"18/06/18","07:00",0.0,19.8,90.6,1005.0,337.9,0.7,1.2,341.5,0.00,18.3,20.7,"06:59:20",1
"18/06/18","07:10",0.0,20.0,91.3,1004.8,306.4,0.6,0.9,333.7,0.04,18.6,20.6,"07:02:40",1
"18/06/18","07:20",0.0,20.2,91.8,1004.8,301.2,0.5,1.0,227.4,0.05,18.9,20.7,"07:15:52",1
"18/06/18","07:30",0.0,20.3,91.5,1004.8,299.0,0.5,0.9,271.2,0.02,18.9,20.6,"07:20:02",1
"18/06/18","07:40",0.0,20.2,91.7,1004.5,303.4,1.0,1.6,314.2,0.02,18.8,20.6,"07:37:12",1
"18/06/18","07:50",0.0,20.4,92.1,1004.8,300.5,0.5,1.0,305.7,0.02,19.1,20.7,"07:49:36",1
"18/06/18","08:00",0.0,20.3,91.4,1004.8,304.1,1.1,1.7,323.5,0.01,18.9,20.7,"07:59:52",1
"18/06/18","08:10",0.0,20.4,91.9,1004.5,296.1,1.1,2.2,317.7,0.04,19.1,20.8,"08:05:12",1
"18/06/18","08:20",0.0,21.2,90.7,1004.3,291.5,0.7,2.0,119.3,0.10,19.7,20.7,"08:18:24",1
"18/06/18","08:30",0.0,21.1,88.3,1004.5,320.5,1.5,2.9,330.8,0.07,19.1,20.8,"08:22:56",1
"18/06/18","08:40",0.0,21.1,87.3,1004.8,4.5,0.6,1.3,328.3,0.02,18.9,20.9,"08:30:32",1
"18/06/18","08:50",0.0,21.3,85.2,1004.3,32.6,0.8,2.1,117.4,0.05,18.8,20.7,"08:45:20",1
"18/06/18","09:00",0.0,21.4,83.7,1004.5,353.6,0.6,1.9,359.5,0.02,18.6,20.9,"08:50:02",1
"18/06/18","09:10",0.0,21.5,82.7,1003.8,338.0,1.1,2.4,350.3,0.06,18.5,20.7,"09:06:24",1
"18/06/18","09:20",0.0,21.9,82.1,1003.6,344.4,0.8,1.8,27.5,0.07,18.7,20.8,"09:12:16",1
"18/06/18","09:30",0.0,21.9,80.9,1003.6,8.6,0.7,1.8,347.7,0.08,18.5,20.9,"09:23:44",1
"18/06/18","09:40",0.0,22.1,80.6,1003.6,355.8,0.7,1.8,84.4,0.06,18.6,20.9,"09:34:08",1
"18/06/18","09:50",0.0,21.9,79.1,1004.1,74.5,0.8,2.5,110.5,0.04,18.2,20.7,"09:44:56",1
"18/06/18","10:00",0.0,22.0,77.9,1003.8,60.4,0.7,1.9,80.7,0.05,18.0,21.0,"09:56:40",1
"18/06/18","10:10",0.0,22.3,77.4,1003.8,33.2,0.7,1.8,24.9,0.08,18.2,20.8,"10:06:16",1
"18/06/18","10:20",0.0,22.7,76.4,1003.8,50.5,0.8,3.5,128.6,0.15,18.4,21.0,"10:10:02",1
"18/06/18","10:30",0.0,22.6,75.2,1003.8,115.5,0.8,2.5,127.1,0.05,18.0,20.8,"10:26:08",1
"18/06/18","10:40",6.0,22.5,76.4,1003.6,48.3,0.6,1.7,115.6,0.06,18.2,21.0,"10:30:24",1
"18/06/18","10:50",0.0,22.7,75.5,1003.6,102.3,1.3,4.3,190.4,0.12,18.2,21.0,"10:44:24",1
"18/06/18","11:00",0.0,22.8,75.6,1003.1,80.4,1.1,2.8,120.3,0.16,18.3,21.2,"10:56:32",1
"18/06/18","11:10",0.0,22.9,75.2,1002.9,171.0,2.3,5.6,173.6,0.18,18.3,21.2,"11:03:20",1
"18/06/18","11:20",0.0,23.5,74.5,1003.1,137.5,1.5,3.5,211.0,0.25,18.7,21.2,"11:16:32",1
"18/06/18","11:30",0.0,23.7,73.6,1003.1,150.0,1.1,2.5,189.2,0.23,18.7,21.4,"11:20:08",1
"18/06/18","11:40",0.0,23.3,73.8,1003.1,149.8,2.2,5.2,120.8,0.20,18.4,21.5,"11:33:12",1
"18/06/18","11:50",0.0,23.1,73.6,1003.1,165.3,2.5,5.1,158.6,0.17,18.2,21.5,"11:40:40",1
"18/06/18","12:00",0.0,23.4,73.7,1002.9,157.2,2.1,4.9,120.4,0.17,18.5,21.5,"11:53:12",1
"18/06/18","12:10",0.0,23.3,73.8,1002.9,151.6,1.8,4.1,118.6,0.14,18.4,21.6,"12:00:40",1
"18/06/18","12:20",0.0,23.5,74.1,1002.9,153.5,1.8,4.2,128.1,0.17,18.7,21.7,"12:14:16",1
"18/06/18","12:30",0.0,23.9,72.9,1002.4,120.6,1.6,4.1,130.4,0.25,18.8,21.7,"12:22:24",1
"18/06/18","12:40",0.0,23.7,73.4,1002.9,148.5,1.5,2.7,140.0,0.21,18.7,21.8,"12:34:32",1
"18/06/18","12:50",0.0,23.4,73.9,1002.6,150.1,1.7,4.5,133.9,0.16,18.5,21.9,"12:47:36",1
"18/06/18","13:00",0.0,23.3,73.8,1002.2,148.2,2.0,3.7,150.9,0.16,18.4,22.0,"12:54:40",1
"18/06/18","13:10",0.0,23.8,74.1,1002.4,157.6,1.1,2.9,134.1,0.19,19.0,22.0,"13:08:00",1
"18/06/18","13:20",0.0,23.9,74.0,1002.4,159.5,1.3,3.6,119.9,0.21,19.0,22.1,"13:16:00",1
"18/06/18","13:30",0.0,24.2,73.3,1001.9,123.8,1.1,2.9,126.3,0.20,19.2,22.3,"13:23:20",1
"18/06/18","13:40",0.0,24.5,73.8,1001.7,112.8,1.1,2.7,117.5,0.23,19.6,22.2,"13:32:48",1
"18/06/18","13:50",0.0,24.4,71.2,1001.7,107.8,1.2,3.6,125.3,0.18,18.9,22.3,"13:45:52",1
"18/06/18","14:00",0.0,25.6,69.1,1001.5,103.5,1.1,2.8,114.4,0.39,19.6,22.3,"13:50:40",1
"18/06/18","14:10",0.0,25.9,67.5,1000.8,98.5,1.0,3.2,114.2,0.43,19.5,22.5,"14:05:20",1
"18/06/18","14:20",0.0,25.9,69.0,1000.8,122.8,1.6,5.2,121.4,0.36,19.8,22.3,"14:18:48",1
"18/06/18","14:30",0.0,25.8,70.2,1000.8,105.9,1.5,4.0,168.9,0.34,20.0,22.7,"14:20:24",1
"18/06/18","14:40",0.0,26.3,67.2,1000.3,125.2,1.1,3.4,185.3,0.45,19.8,22.7,"14:39:36",1
"18/06/18","14:50",0.0,26.7,67.8,1000.3,132.2,1.7,4.2,124.4,0.49,20.3,23.1,"14:43:52",1
"18/06/18","15:00",0.0,27.0,65.9,1000.5,115.9,1.0,2.7,140.4,0.39,20.1,22.9,"14:53:44",1
"18/06/18","15:10",0.0,26.6,63.8,1000.3,91.4,1.2,2.8,153.1,0.34,19.2,23.1,"15:09:52",1
"18/06/18","15:20",0.0,26.8,65.7,1000.5,106.7,1.2,3.4,130.4,0.36,19.9,23.2,"15:17:28",1
"18/06/18","15:30",0.0,27.1,67.2,1000.3,88.3,1.1,2.6,152.3,0.37,20.5,23.2,"15:20:32",1
"18/06/18","15:40",0.0,26.7,64.9,1000.5,117.4,1.0,2.4,89.4,0.29,19.6,23.4,"15:30:48",1
"18/06/18","15:50",0.0,26.1,66.2,1000.3,97.3,1.2,4.3,103.8,0.24,19.3,23.5,"15:48:32",1
"18/06/18","16:00",0.0,25.7,66.6,999.8,121.6,1.2,2.7,126.7,0.20,19.1,23.5,"15:56:16",1
"18/06/18","16:10",0.0,26.1,67.1,1000.3,115.0,1.1,3.6,101.8,0.19,19.6,23.3,"16:05:32",1
"18/06/18","16:20",0.0,25.5,68.4,999.6,113.1,1.2,2.5,92.2,0.13,19.3,23.6,"16:18:24",1
"18/06/18","16:30",0.0,25.4,67.5,1000.3,116.2,1.2,3.1,148.8,0.11,19.0,23.7,"16:29:52",1
"18/06/18","16:40",0.0,25.4,68.0,1000.3,130.7,1.3,2.9,120.1,0.12,19.1,23.5,"16:35:36",1
"18/06/18","16:50",0.0,25.6,67.9,999.8,135.1,1.2,3.6,98.1,0.13,19.3,23.6,"16:44:32",1
"18/06/18","17:00",0.0,25.4,67.4,1000.3,134.1,1.1,2.8,139.4,0.05,19.0,23.5,"16:58:56",1
"18/06/18","17:10",0.0,25.1,68.1,1000.0,140.4,1.7,4.0,127.2,0.06,18.8,23.3,"17:06:40",1
"18/06/18","17:20",0.0,24.7,68.3,1000.5,147.3,2.3,4.9,123.1,0.07,18.5,23.2,"17:18:08",1
"18/06/18","17:30",0.0,24.5,69.2,1000.3,154.4,2.2,4.1,129.2,0.06,18.5,23.1,"17:26:16",1
"18/06/18","17:40",0.0,24.3,69.5,1000.3,139.6,1.7,3.5,152.9,0.05,18.4,23.3,"17:36:48",1
"18/06/18","17:50",0.0,24.3,69.4,1000.8,149.5,1.7,3.4,133.2,0.05,18.4,23.1,"17:43:04",1
"18/06/18","18:00",0.0,24.3,69.9,1000.8,162.6,1.7,3.7,138.1,0.04,18.5,23.1,"17:54:00",1
"18/06/18","18:10",0.0,24.2,69.9,1000.8,131.5,1.1,3.1,95.2,0.03,18.4,23.0,"18:05:04",1
"18/06/18","18:20",0.0,24.1,70.2,1001.2,93.0,1.0,2.1,86.7,0.02,18.4,23.1,"18:11:12",1
"18/06/18","18:30",0.0,23.9,70.6,1001.2,121.7,0.8,2.7,157.2,0.02,18.3,22.9,"18:25:04",1
"18/06/18","18:40",0.0,23.9,71.0,1001.2,82.7,0.7,1.7,140.5,0.02,18.4,22.9,"18:30:48",1
"18/06/18","18:50",0.0,23.9,71.1,1001.5,42.8,0.5,1.7,123.2,0.01,18.4,22.9,"18:48:32",1
"18/06/18","19:00",0.0,23.8,70.8,1001.5,359.6,0.5,2.0,68.6,0.00,18.2,22.8,"18:55:04",1
"18/06/18","19:10",0.0,23.6,71.4,1001.5,3.5,0.5,1.2,28.4,0.00,18.2,22.7,"19:07:20",1
"18/06/18","19:20",0.0,23.6,71.2,1001.5,61.0,0.7,1.9,20.0,0.00,18.1,22.6,"19:18:32",1
"18/06/18","19:30",0.0,23.5,71.1,1001.5,32.5,0.6,1.7,108.4,0.00,18.0,22.5,"19:20:48",1
"18/06/18","19:40",0.0,23.4,71.6,1001.5,91.5,0.3,0.9,307.1,0.00,18.0,22.4,"19:30:08",1
"18/06/18","19:50",0.0,23.1,72.9,1001.9,333.9,0.7,1.6,330.7,0.00,18.0,22.5,"19:46:16",1
"18/06/18","20:00",0.0,22.8,73.6,1001.7,300.7,0.3,0.9,330.0,0.00,17.9,22.4,"19:50:08",1
"18/06/18","20:10",0.0,22.4,75.8,1001.9,252.4,0.7,1.8,319.7,0.00,18.0,22.4,"20:07:28",1
"18/06/18","20:20",0.0,22.5,76.0,1001.9,332.5,0.8,1.4,342.4,0.00,18.1,22.3,"20:15:12",1
"18/06/18","20:30",0.0,22.3,77.2,1002.2,320.4,1.2,1.7,323.8,0.00,18.2,22.2,"20:26:24",1
"18/06/18","20:40",0.0,22.0,78.8,1001.9,329.1,1.3,2.7,332.9,0.00,18.2,22.0,"20:32:16",1
"18/06/18","20:50",0.0,21.7,79.9,1001.9,320.1,1.2,1.9,337.6,0.00,18.1,22.1,"20:41:44",1
"18/06/18","21:00",0.0,21.5,80.6,1002.4,292.5,1.0,1.4,311.5,0.00,18.1,22.1,"20:51:04",1
"18/06/18","21:10",0.0,21.4,81.1,1002.4,318.9,1.3,2.6,332.0,0.00,18.1,22.1,"21:06:16",1
"18/06/18","21:20",0.0,21.2,81.9,1002.4,325.1,1.3,1.8,332.9,0.00,18.0,21.9,"21:10:40",1
"18/06/18","21:30",0.0,20.9,83.0,1002.4,313.9,1.2,1.9,327.2,0.00,17.9,21.8,"21:27:20",1
"18/06/18","21:40",0.0,20.7,83.5,1002.4,282.4,0.8,1.4,315.4,0.00,17.8,21.9,"21:30:08",1
"18/06/18","21:50",0.0,20.6,84.0,1002.6,295.4,1.0,1.6,312.3,0.00,17.8,21.9,"21:48:56",1
"18/06/18","22:00",0.0,20.5,84.0,1002.6,291.0,0.8,1.7,316.5,0.00,17.7,21.7,"21:52:24",1
"18/06/18","22:10",0.0,20.4,83.9,1003.4,290.7,0.8,1.4,298.9,0.00,17.6,21.7,"22:00:16",1
"18/06/18","22:20",0.0,20.2,84.6,1003.1,313.4,0.8,1.4,317.0,0.00,17.6,21.4,"22:19:12",1
"18/06/18","22:30",0.0,20.2,86.5,1002.9,338.1,1.0,1.3,325.8,0.00,17.9,21.4,"22:20:40",1
"18/06/18","22:40",0.0,19.9,86.4,1002.4,335.1,1.1,1.8,326.0,0.00,17.6,21.5,"22:38:24",1
"18/06/18","22:50",0.0,19.6,87.8,1002.6,290.8,0.8,1.8,316.0,0.00,17.6,21.5,"22:40:32",1
"18/06/18","23:00",0.0,19.4,88.1,1002.6,288.6,0.8,1.3,308.9,0.00,17.4,21.3,"22:52:40",1
"18/06/18","23:10",0.0,19.4,88.4,1002.6,308.3,1.0,1.4,315.2,0.00,17.5,21.3,"23:03:04",1
"18/06/18","23:20",0.0,19.3,88.3,1002.9,312.7,1.0,1.4,326.5,0.00,17.4,21.2,"23:15:52",1
"18/06/18","23:30",0.0,19.2,89.1,1002.6,323.1,1.2,1.6,323.2,0.00,17.4,21.2,"23:23:12",1
"18/06/18","23:40",0.0,19.0,90.0,1002.6,302.9,1.0,1.7,314.8,0.00,17.4,21.2,"23:39:36",1
"18/06/18","23:50",0.0,19.1,89.9,1002.9,311.8,1.2,2.2,324.1,0.00,17.4,21.0,"23:42:48",1
"18/06/18","24:00",0.0,19.3,89.7,1002.9,309.5,1.1,1.4,320.4,0.00,17.6,20.9,"23:59:28",1
